[[{"header":{"parameterUnit":"m.s-1","parameterCategory":2,"la1":30.2991,"la2":30.254,"lo1":-89.0895,"lo2":-89.0444,"dy":0.0017,"dx":0.0017,"nx":28,"ny":28,"refTime":"2025-08-29T03:00:00:Z","depth":"0","parameterNumber":2,"parameterNumberName":"U-component_of_CURRENTS"},"data":[0,0,0,0,0,0,0,0,0,0,0,0,0,0,0,0,0,0,0,0,0,0,0,0,0,0,0,0,0,0,0,0,0,0,0,0,0,0,0,0,0,0,0,0,0,0,0,0,0,0,0,0,0,0,0,0,0,0,0.281,0.281,0,0.2875,0.2876,0.2876,0.2918,0.2918,0.2918,0.2919,0.3046,0.3048,0.3051,0,0,0,0,0,0,0,0,0,0,0,0,0,0.2704,0.2705,0.281,0.2811,0.2812,0.2875,0.2876,0.2876,0.2918,0.2918,0.2919,0.2919,0.3045,0.3048,0.3052,0,0,0,0,0,0,0,0,0,0,0,0,0,0.2756,0.2706,0.2809,0.2841,0.2845,0.2875,0.2876,0.2877,0.2918,0.2918,0.2919,0.2919,0.3043,0.3048,0.3052,0.3068,0,0,0.3066,0.3068,0,0,0,0,0,0,0,0,0.2753,0.276,0.2835,0.2839,0.2843,0.289,0.2885,0.2944,0.2917,0.2888,0.2919,0.292,0.3,0.3008,0.3016,0.3074,0.308,0.3066,0.3069,0.3071,0.3072,0,0,0,0,0,0,0,0.2749,0.2757,0.2834,0.2836,0.2841,0.2846,0.2854,0.2896,0.294,0.2891,0.2894,0.2904,0.3002,0.3011,0.3019,0.3082,0.3066,0.307,0.3073,0.3075,0.3183,0.3183,0,0,0,0,0,0,0.2745,0.2754,0.2832,0.2836,0.28,0.2848,0.2857,0.2873,0.2938,0.2949,0.2903,0.2906,0.3003,0.3014,0.3024,0.3078,0.3071,0.3075,0.3078,0.3183,0.3183,0.3183,0,0,0,0,0,0,0.2743,0.2752,0.2829,0.2797,0.2808,0.2849,0.2867,0.2874,0.2893,0.2947,0.2959,0.2916,0.3004,0.3018,0.3054,0.3082,0.3077,0.3081,0.3182,0.3183,0.3183,0.3166,0,0,0,0,0,0,0.2739,0.275,0.2757,0.2797,0.2809,0.2853,0.2867,0.2875,0.2898,0.2902,0.2962,0.2974,0.3006,0.3047,0.3058,0.3088,0.3085,0.3182,0.3183,0.3183,0.3167,0.3166,0.3165,0,0,0,0,0,0.2735,0.2742,0.2757,0.2767,0.2819,0.2854,0.2861,0.289,0.2898,0.2908,0.2936,0.2972,0.3058,0.305,0.3064,0.3096,0.3182,0.3182,0.3183,0.3167,0.3166,0.3165,0,0,0,0,0,0,0.2694,0.2748,0.2766,0.2787,0.2822,0.2862,0.287,0.2891,0.292,0.2924,0.2969,0.2983,0.3029,0.3056,0.3046,0.3125,0.3129,0.3132,0.3112,0.3111,0.3111,0.3121,0.3089,0,0,0,0,0,0.2689,0.2713,0.2761,0.2777,0.2793,0.2831,0.2847,0.2872,0.2904,0.2918,0.2955,0.2995,0.3039,0.3068,0.3106,0.3146,0.3169,0.3176,0.3175,0.3174,0.319,0.3222,0.3226,0.3184,0.3184,0.3184,0,0,0.2677,0.271,0.2722,0.2771,0.2796,0.2826,0.2842,0.287,0.2899,0.2928,0.2965,0.2995,0.3047,0.3091,0.3115,0.3119,0.3196,0.3175,0.3174,0.3191,0.3223,0.3227,0.3231,0.3184,0.3184,0.3184,0,0,0.2667,0.2693,0.2712,0.2743,0.2789,0.2818,0.2827,0.2871,0.2892,0.2933,0.2958,0.2997,0.3062,0.3101,0.3132,0.315,0.3188,0.3165,0.318,0.3209,0.3213,0.3217,0.3241,0.3248,0.3169,0.3169,0.3169,0,0.2647,0.2687,0.272,0.2749,0.2778,0.2815,0.2845,0.2872,0.292,0.2942,0.2947,0.3036,0.3074,0.3137,0.3143,0.3154,0.317,0.3178,0.3209,0.3213,0.3217,0.3242,0.3249,0.3168,0.3168,0.3168,0.3168,0,0.2659,0.2692,0.2702,0.2759,0.2791,0.282,0.287,0.2893,0.2923,0.2959,0.3017,0.3056,0.3111,0.313,0.315,0.3202,0.3202,0.32,0.3211,0.3221,0.3245,0.3253,0.3167,0.3167,0.3168,0.3168,0,0,0.2611,0.2695,0.2698,0.2728,0.2802,0.2824,0.2873,0.293,0.2963,0.3005,0.3053,0.3118,0.3134,0.3168,0.319,0.3223,0.3261,0.3225,0.3227,0.325,0.3323,0.3272,0.3275,0.3258,0.326,0.3261,0.3324,0,0.2611,0.2657,0.2712,0.2759,0.2789,0.2847,0.2893,0.2948,0.2997,0.3044,0.3092,0.3147,0.315,0.3178,0.3207,0.3257,0.3282,0.3244,0.3311,0.3313,0.3267,0.3283,0.319,0.3235,0.3332,0.3333,0.3334,0,0.2607,0.2643,0.2685,0.2769,0.2787,0.2819,0.2894,0.2943,0.3024,0.3071,0.3127,0.3164,0.3228,0.3219,0.3302,0.3276,0.3299,0.3328,0.333,0.3299,0.3277,0.3243,0.3245,0.3179,0.3346,0.3345,0.3344,0,0.2547,0.2625,0.2654,0.268,0.2776,0.2801,0.285,0.2938,0.2986,0.308,0.3126,0.3201,0.3247,0.3289,0.3344,0.3328,0.3428,0.341,0.3384,0.338,0.3325,0.3314,0.3274,0.3458,0.3458,0.3458,0.3458,0,0.2528,0.2554,0.2619,0.2633,0.267,0.2755,0.2806,0.2873,0.2973,0.3027,0.3119,0.3172,0.3267,0.3329,0.3361,0.3401,0.3439,0.3398,0.3397,0.3314,0.3302,0.3261,0.3233,0.346,0.346,0.3459,0.3459,0,0.2472,0.2516,0.2548,0.2622,0.2641,0.2661,0.2764,0.2802,0.2916,0.2987,0.3019,0.3165,0.325,0.3329,0.3422,0.3422,0.3377,0.3465,0.336,0.3345,0.3231,0.3204,0.3064,0.2973,0.3442,0.3442,0.3441,0,0.2466,0.2465,0.2506,0.2511,0.2541,0.2588,0.2622,0.2749,0.2797,0.2967,0.2988,0.3119,0.3188,0.3319,0.3363,0.3417,0.3332,0.3354,0.33,0.3219,0.3191,0.3061,0.2985,0.3223,0.3221,0.3219,0.3217,0,0.2442,0.2432,0.2446,0.2441,0.2456,0.2489,0.2545,0.2577,0.2723,0.2797,0.2898,0.2976,0.3127,0.3166,0.3265,0.3284,0.3196,0.3312,0.326,0.3044,0.2869,0.2782,0.3189,0.32,0.3201,0.3203,0.3204,0.3204,0.2415,0.2393,0.238,0.237,0.2381,0.238,0.2379,0.2453,0.2514,0.2616,0.2746,0.2837,0.2998,0.3125,0.3114,0.3079,0.305,0.3029,0.3016,0.29,0.2762,0.3123,0.3106,0.3108,0.3109,0.311,0.311,0,0.2375,0.2334,0.2319,0.2289,0.2258,0.2294,0.2318,0.2309,0.2333,0.2465,0.255,0.2694,0.2774,0.2873,0.2922,0.2827,0.2694,0.2763,0.2578,0.2527,0.2894,0.2835,0.2719,0.2719,0.2719,0.2719,0.2719,0.2719,0.235,0.2285,0.2255,0.2174,0.2151,0.2092,0.2082,0.2087,0.2151,0.2215,0.2295,0.2414,0.2637,0.2776,0.2721,0.2653,0.2445,0.2338,0.2315,0.2616,0.264,0.2662,0.26,0.2436,0.2436,0.1853,0.1848,0.1845]},{"header":{"parameterUnit":"m.s-1","parameterCategory":2,"la1":30.2991,"la2":30.254,"lo1":-89.0895,"lo2":-89.0444,"dy":0.0017,"dx":0.0017,"nx":28,"ny":28,"refTime":"2025-08-29T03:00:00:Z","depth":"0","parameterNumber":3,"parameterNumberName":"V-component_of_CURRENTS"},"data":[0,0,0,0,0,0,0,0,0,0,0,0,0,0,0,0,0,0,0,0,0,0,0,0,0,0,0,0,0,0,0,0,0,0,0,0,0,0,0,0,0,0,0,0,0,0,0,0,0,0,0,0,0,0,0,0,0,0,0.0277,0.0276,0,0.0173,0.0171,0.017,0.009,0.0089,0.0089,0.0088,-0.0103,-0.0108,-0.0112,0,0,0,0,0,0,0,0,0,0,0,0,0,0.0335,0.0335,0.0277,0.0276,0.0275,0.0173,0.0171,0.017,0.009,0.0089,0.0089,0.0088,-0.0102,-0.0107,-0.0113,0,0,0,0,0,0,0,0,0,0,0,0,0,0.0275,0.0334,0.0277,0.0226,0.022,0.0173,0.0171,0.0169,0.009,0.0089,0.0089,0.0088,-0.01,-0.0107,-0.0114,-0.0145,0,0,-0.0135,-0.0138,0,0,0,0,0,0,0,0,0.0279,0.0273,0.0234,0.0229,0.0223,0.0147,0.0122,0.0061,0.009,0.0136,0.0088,0.0088,-0.0025,-0.0038,-0.006,-0.0154,-0.0162,-0.0136,-0.014,-0.0143,-0.0145,0,0,0,0,0,0,0,0.0283,0.0276,0.0232,0.0234,0.0227,0.0183,0.0174,0.0109,0.0056,0.0132,0.0126,0.0121,-0.0029,-0.0053,-0.0066,-0.0165,-0.0136,-0.0142,-0.0146,-0.0149,-0.0289,-0.0289,0,0,0,0,0,0,0.0308,0.0281,0.0236,0.023,0.0254,0.0184,0.0173,0.0169,0.0058,0.0042,0.0121,0.0118,-0.0041,-0.0057,-0.0073,-0.0103,-0.0143,-0.015,-0.0154,-0.029,-0.0289,-0.0289,0,0,0,0,0,0,0.0309,0.0305,0.024,0.0255,0.0245,0.0184,0.0179,0.0167,0.0146,0.0052,0.0034,0.0114,-0.0042,-0.0063,-0.0128,-0.0111,-0.0153,-0.0159,-0.0291,-0.029,-0.0289,-0.0171,0,0,0,0,0,0,0.0312,0.0306,0.0309,0.0257,0.0245,0.0222,0.018,0.0166,0.0145,0.0139,0.0039,0.0021,-0.0044,-0.0117,-0.0135,-0.0122,-0.0165,-0.0291,-0.029,-0.0289,-0.0176,-0.0166,-0.0159,0,0,0,0,0,0.0314,0.0323,0.031,0.0305,0.0252,0.0223,0.0213,0.0164,0.0146,0.0142,0.0072,0.0024,-0.0123,-0.0123,-0.0144,-0.0132,-0.0292,-0.029,-0.0289,-0.018,-0.0168,-0.0159,0,0,0,0,0,0,0.0346,0.0315,0.0299,0.0298,0.0269,0.0211,0.0204,0.0175,0.0118,0.0109,0.0021,-0.0003,-0.005,-0.0109,-0.0106,-0.0169,-0.0212,-0.0215,-0.0121,-0.0111,-0.0103,-0.0069,-0.0171,0,0,0,0,0,0.0359,0.0358,0.0321,0.032,0.0312,0.0262,0.0244,0.0215,0.0161,0.0136,0.0069,-0.0002,-0.0062,-0.01,-0.0163,-0.0204,-0.0236,-0.0208,-0.0199,-0.0191,-0.0178,-0.0206,-0.0198,-0.0285,-0.0285,-0.0285,0,0,0.0371,0.0354,0.0352,0.0327,0.03,0.0294,0.0249,0.0232,0.0221,0.0123,0.0085,0.0023,-0.0066,-0.0109,-0.0135,-0.0157,-0.0182,-0.019,-0.0182,-0.0174,-0.0204,-0.0196,-0.0188,-0.0284,-0.0284,-0.0285,0,0,0.0398,0.0383,0.0393,0.0377,0.0351,0.0322,0.0325,0.0278,0.0252,0.021,0.0143,0.0098,-0.0003,-0.0052,-0.0094,-0.0076,-0.0133,-0.0098,-0.0033,-0.006,-0.0052,-0.0046,-0.0063,-0.0059,-0.0096,-0.0095,-0.0095,0,0.0412,0.0422,0.0391,0.0397,0.0392,0.0343,0.0355,0.0322,0.0258,0.0245,0.0213,0.0101,0.0028,-0.0015,-0.0009,-0.0054,-0.0078,-0.0062,-0.0046,-0.0041,-0.0036,-0.0055,-0.0053,-0.009,-0.009,-0.0091,-0.0091,0,0.0447,0.0454,0.0461,0.0455,0.0444,0.0446,0.0409,0.0393,0.0361,0.0328,0.0286,0.0196,0.0134,0.0107,0.0048,0.0044,0.0016,-0.0027,-0.0064,-0.002,-0.0043,-0.0043,-0.0081,-0.0083,-0.0085,-0.0087,0,0,0.0476,0.0485,0.0487,0.0501,0.0478,0.0476,0.0469,0.0453,0.0459,0.0398,0.0399,0.0306,0.0272,0.0225,0.0155,0.0129,0.0139,0.0072,0.0068,0.0071,0.009,0.0063,0.006,0.01,0.01,0.0101,0.0067,0,0.0512,0.055,0.0538,0.0569,0.0587,0.0552,0.0551,0.0529,0.0502,0.0491,0.0418,0.0383,0.0312,0.0288,0.0255,0.0164,0.0144,0.0153,0.0034,0.003,0.0013,0.0061,0.0067,0.0037,0.0067,0.0067,0.0067,0,0.0549,0.0572,0.0616,0.0638,0.0643,0.0649,0.0656,0.0651,0.0622,0.0603,0.057,0.0506,0.0458,0.039,0.0286,0.0294,0.021,0.0141,0.0137,0.0072,0.0004,-0.0008,0.0036,-0.0094,0.0067,0.0067,0.0067,0,0.0593,0.0627,0.0669,0.0674,0.0686,0.0698,0.0703,0.0688,0.0703,0.068,0.0691,0.0614,0.0582,0.0475,0.0331,0.0309,0.022,0.0165,0.0065,0.0062,0.0024,0.0017,-0.006,0.0103,0.0103,0.0103,0.0103,0,0.0634,0.0666,0.0695,0.0715,0.0764,0.0754,0.0802,0.0792,0.0802,0.0838,0.0758,0.0765,0.0602,0.0521,0.0381,0.0238,0.0258,0.0095,0.0056,0.0065,0.0062,-0.0091,-0.0178,0.0102,0.0102,0.0102,0.0102,0,0.0665,0.0685,0.0737,0.0772,0.0785,0.0821,0.087,0.0908,0.0908,0.0955,0.0952,0.0887,0.0783,0.0615,0.0442,0.031,0.0083,0.0102,0.013,0.0095,-0.0125,-0.0207,-0.0332,-0.0395,-0.0005,-0.0005,-0.0006,0,0.0679,0.0713,0.078,0.0817,0.0833,0.0889,0.0931,0.0955,0.1005,0.1031,0.1062,0.0981,0.0939,0.0687,0.0432,0.02,0.006,0.0051,0.0003,-0.0118,-0.0238,-0.0288,-0.0336,0.0002,0.0002,0.0001,0.0001,0,0.0706,0.0734,0.078,0.0863,0.0919,0.0993,0.1058,0.1116,0.1155,0.1201,0.1239,0.1209,0.0969,0.0737,0.0416,0.0244,-0.0042,0.0033,-0.0101,-0.0237,-0.0288,-0.0374,0.0008,-0.0003,-0.0003,-0.0002,-0.0002,-0.0002,0.072,0.0763,0.083,0.091,0.0984,0.1081,0.1154,0.1238,0.1331,0.1419,0.1379,0.1385,0.1042,0.0602,0.0346,-0.0088,-0.01,-0.0217,-0.0302,-0.0339,-0.0409,-0.0027,-0.0083,-0.0083,-0.0083,-0.0083,-0.0083,0,0.0728,0.0792,0.087,0.0971,0.1061,0.1095,0.1227,0.1317,0.1443,0.1535,0.1576,0.143,0.0998,0.0571,-0.0032,-0.0348,-0.0461,-0.0521,-0.0592,-0.0624,-0.0288,-0.0296,-0.0388,-0.0388,-0.0388,-0.0388,-0.0388,-0.0388,0.0734,0.0811,0.0863,0.1012,0.109,0.1218,0.1303,0.1442,0.1549,0.1679,0.1712,0.1706,0.1368,0.0257,-0.0466,-0.0635,-0.0853,-0.0916,-0.1023,-0.0801,-0.0778,-0.0757,-0.0783,-0.0976,-0.0977,-0.1303,-0.1306,-0.1309]}],[{"header":{"parameterUnit":"m.s-1","parameterCategory":2,"la1":30.2991,"la2":30.254,"lo1":-89.0895,"lo2":-89.0444,"dy":0.0017,"dx":0.0017,"nx":28,"ny":28,"refTime":"2025-08-29T03:00:00:Z","depth":"2","parameterNumber":2,"parameterNumberName":"U-component_of_CURRENTS"},"data":[0,0,0,0,0,0,0,0,0,0,0,0,0,0,0,0,0,0,0,0,0,0,0,0,0,0,0,0,0,0,0,0,0,0,0,0,0,0,0,0,0,0,0,0,0,0,0,0,0,0,0,0,0,0,0,0,0,0,0.2221,0.2222,0,0.2247,0.2246,0.2245,0.2265,0.2266,0.2268,0.2269,0.2447,0.2451,0.2454,0,0,0,0,0,0,0,0,0,0,0,0,0,0.2109,0.211,0.2221,0.2222,0.2224,0.2247,0.2246,0.2245,0.2265,0.2266,0.2268,0.2269,0.2446,0.245,0.2454,0,0,0,0,0,0,0,0,0,0,0,0,0,0.2136,0.211,0.222,0.2246,0.2249,0.2247,0.2246,0.2245,0.2264,0.2266,0.2268,0.227,0.2445,0.245,0.2455,0.2447,0,0,0.2471,0.2473,0,0,0,0,0,0,0,0,0.2135,0.2139,0.224,0.2244,0.2248,0.2266,0.2273,0.2325,0.2264,0.2245,0.2269,0.2271,0.2408,0.2416,0.2396,0.2455,0.2463,0.2472,0.2475,0.2477,0.2478,0,0,0,0,0,0,0,0.2133,0.2137,0.2218,0.2242,0.2247,0.223,0.2235,0.228,0.2307,0.2247,0.2251,0.2274,0.2409,0.239,0.2401,0.2465,0.2471,0.2476,0.2479,0.2481,0.2627,0.2628,0,0,0,0,0,0,0.2158,0.2136,0.2217,0.222,0.221,0.2231,0.2237,0.2248,0.2304,0.2317,0.2272,0.2275,0.2381,0.2395,0.2408,0.2484,0.2477,0.2482,0.2485,0.2627,0.2627,0.2628,0,0,0,0,0,0,0.2155,0.2164,0.2216,0.2189,0.2197,0.2233,0.2244,0.2247,0.2246,0.2324,0.2338,0.2272,0.2383,0.2401,0.2477,0.2489,0.2484,0.2489,0.2626,0.2627,0.2628,0.2586,0,0,0,0,0,0,0.2151,0.2162,0.2166,0.2191,0.22,0.2222,0.2243,0.2247,0.2263,0.2266,0.2328,0.2345,0.2386,0.2469,0.2483,0.2496,0.2493,0.2625,0.2626,0.2627,0.2587,0.2586,0.2585,0,0,0,0,0,0.2146,0.2157,0.2165,0.2176,0.2207,0.2223,0.2223,0.2248,0.2261,0.2252,0.2314,0.2344,0.2487,0.2474,0.249,0.2505,0.2624,0.2626,0.2627,0.2587,0.2586,0.2585,0,0,0,0,0,0,0.2114,0.2161,0.2171,0.2196,0.2212,0.2232,0.224,0.2247,0.2277,0.2302,0.2356,0.2377,0.2441,0.2482,0.2466,0.2552,0.2559,0.2564,0.2523,0.2523,0.2522,0.2526,0.2497,0,0,0,0,0,0.2109,0.213,0.2162,0.2182,0.2193,0.221,0.2218,0.2238,0.2278,0.2291,0.2336,0.2399,0.2451,0.2497,0.2542,0.2596,0.2621,0.2616,0.2615,0.2614,0.2628,0.2667,0.2671,0.2634,0.2634,0.2634,0,0,0.2104,0.2137,0.2147,0.2177,0.2192,0.2209,0.2217,0.2244,0.2264,0.2312,0.2355,0.2394,0.2463,0.2518,0.2551,0.2563,0.2635,0.2617,0.2615,0.263,0.2669,0.2673,0.2676,0.2635,0.2635,0.2634,0,0,0.2108,0.2131,0.2144,0.2158,0.2199,0.2217,0.2227,0.2252,0.2266,0.2313,0.2351,0.2399,0.2481,0.2521,0.2557,0.2581,0.2618,0.2601,0.2615,0.2652,0.2655,0.2658,0.2675,0.268,0.2613,0.2613,0.2613,0,0.2098,0.2128,0.2148,0.2164,0.219,0.2222,0.224,0.2253,0.2301,0.2324,0.2338,0.2437,0.248,0.2551,0.256,0.2578,0.2606,0.2609,0.2649,0.2653,0.2657,0.2673,0.268,0.2611,0.2612,0.2612,0.2612,0,0.2106,0.2132,0.2146,0.2182,0.2199,0.2229,0.2264,0.229,0.2323,0.2338,0.2402,0.2449,0.2515,0.2525,0.2557,0.2609,0.262,0.2628,0.2645,0.2658,0.2675,0.2682,0.2609,0.261,0.261,0.2611,0,0,0.2082,0.2139,0.2145,0.2163,0.2219,0.2232,0.2284,0.2328,0.2364,0.2399,0.2443,0.2502,0.2518,0.2559,0.2591,0.2626,0.2656,0.2648,0.2651,0.2654,0.2735,0.2665,0.2666,0.2679,0.2681,0.2682,0.2727,0,0.2085,0.2114,0.2153,0.219,0.2206,0.2263,0.23,0.2345,0.2393,0.244,0.2485,0.2536,0.2534,0.2574,0.2603,0.2648,0.2678,0.2643,0.2734,0.2736,0.2663,0.2672,0.2499,0.2519,0.2735,0.2736,0.2737,0,0.2077,0.2104,0.213,0.2196,0.2209,0.2237,0.2317,0.2355,0.2432,0.2478,0.2537,0.2569,0.2627,0.2624,0.2696,0.2681,0.2709,0.2734,0.2737,0.2696,0.268,0.2548,0.2524,0.2749,0.2748,0.2747,0.2746,0,0.2036,0.2093,0.2117,0.2134,0.2203,0.2237,0.2283,0.2358,0.2403,0.2502,0.255,0.2615,0.2663,0.2705,0.274,0.2735,0.2816,0.2809,0.277,0.2765,0.2648,0.2629,0.2865,0.2865,0.2865,0.2865,0.2865,0,0.2025,0.2047,0.2095,0.2105,0.2143,0.2198,0.2256,0.2326,0.2419,0.2465,0.2553,0.2607,0.2692,0.2739,0.2761,0.2778,0.2828,0.2776,0.2777,0.2626,0.2606,0.2836,0.2832,0.2867,0.2866,0.2866,0.2866,0,0.1982,0.2016,0.2041,0.2102,0.2122,0.2142,0.2239,0.2276,0.2381,0.2454,0.249,0.2617,0.2682,0.2739,0.2819,0.28,0.2827,0.2824,0.263,0.2606,0.2747,0.2741,0.2782,0.278,0.2778,0.2777,0.2776,0,0.197,0.1971,0.2016,0.2023,0.2055,0.2099,0.2131,0.2247,0.2293,0.2441,0.2465,0.2576,0.2629,0.2714,0.2724,0.2748,0.2804,0.2589,0.2538,0.2744,0.2741,0.2737,0.2733,0.2362,0.2357,0.2354,0.2351,0,0.1942,0.1948,0.1963,0.1971,0.1995,0.2027,0.2083,0.2115,0.2239,0.2311,0.2397,0.2455,0.2555,0.2514,0.2561,0.2548,0.2565,0.2514,0.2796,0.2405,0.235,0.2346,0.2356,0.2318,0.2321,0.2324,0.2326,0.2327,0.1917,0.1906,0.191,0.1913,0.1933,0.1936,0.1938,0.2001,0.2059,0.2137,0.2252,0.2286,0.2347,0.2329,0.2271,0.2238,0.241,0.2318,0.2329,0.2343,0.2282,0.2227,0.2159,0.2161,0.2163,0.2165,0.2167,0,0.1872,0.1858,0.1854,0.1843,0.1821,0.1865,0.1887,0.1868,0.1884,0.1985,0.2049,0.1936,0.194,0.1987,0.19,0.191,0.1886,0.183,0.1788,0.1824,0.1855,0.1767,0.1508,0.1506,0.1503,0.1501,0,0,0.1845,0.1808,0.1791,0.1729,0.1723,0.1674,0.1664,0.1652,0.1691,0.1686,0.1704,0.1872,0.1951,0.17,0.1686,0.1578,0.1679,0.1521,0.2061,0.2051,0.2078,0.2164,0.2072,0,0,0,0,0]},{"header":{"parameterUnit":"m.s-1","parameterCategory":2,"la1":30.2991,"la2":30.254,"lo1":-89.0895,"lo2":-89.0444,"dy":0.0017,"dx":0.0017,"nx":28,"ny":28,"refTime":"2025-08-29T03:00:00:Z","depth":"2","parameterNumber":3,"parameterNumberName":"V-component_of_CURRENTS"},"data":[0,0,0,0,0,0,0,0,0,0,0,0,0,0,0,0,0,0,0,0,0,0,0,0,0,0,0,0,0,0,0,0,0,0,0,0,0,0,0,0,0,0,0,0,0,0,0,0,0,0,0,0,0,0,0,0,0,0,0.0272,0.0272,0,0.0199,0.0198,0.0197,0.0138,0.0137,0.0137,0.0137,-0.0081,-0.0087,-0.0092,0,0,0,0,0,0,0,0,0,0,0,0,0,0.0309,0.0308,0.0273,0.0272,0.0271,0.0199,0.0198,0.0197,0.0138,0.0137,0.0137,0.0136,-0.0079,-0.0086,-0.0092,0,0,0,0,0,0,0,0,0,0,0,0,0,0.0267,0.0308,0.0273,0.0235,0.0231,0.02,0.0198,0.0196,0.0138,0.0137,0.0137,0.0136,-0.0077,-0.0085,-0.0093,-0.0133,0,0,-0.0118,-0.0122,0,0,0,0,0,0,0,0,0.027,0.0266,0.0241,0.0238,0.0233,0.0179,0.0131,0.008,0.0138,0.017,0.0137,0.0136,-0.0005,-0.0019,-0.0034,-0.0144,-0.0153,-0.0119,-0.0124,-0.0128,-0.013,0,0,0,0,0,0,0,0.0273,0.0268,0.0241,0.0241,0.0236,0.0204,0.0198,0.0121,0.0082,0.0167,0.0164,0.016,-0.0009,-0.0026,-0.004,-0.0156,-0.0119,-0.0126,-0.0131,-0.0135,-0.0298,-0.0298,0,0,0,0,0,0,0.0291,0.0271,0.0243,0.0239,0.0254,0.0204,0.0197,0.0195,0.0085,0.007,0.0161,0.0158,-0.0011,-0.003,-0.0048,-0.009,-0.0128,-0.0135,-0.014,-0.0299,-0.0298,-0.0297,0,0,0,0,0,0,0.0292,0.0289,0.0246,0.0255,0.0248,0.0205,0.0203,0.0194,0.0178,0.0082,0.0064,0.0155,-0.0013,-0.0036,-0.011,-0.0099,-0.0139,-0.0147,-0.0299,-0.0299,-0.0298,-0.0182,0,0,0,0,0,0,0.0293,0.029,0.0292,0.0257,0.0248,0.0232,0.0203,0.0193,0.0178,0.0173,0.007,0.005,-0.0015,-0.0097,-0.0118,-0.0111,-0.0153,-0.03,-0.0299,-0.0298,-0.0187,-0.0177,-0.0169,0,0,0,0,0,0.0295,0.0302,0.0293,0.0289,0.0254,0.0233,0.0225,0.019,0.0179,0.0174,0.0108,0.0053,-0.0105,-0.0104,-0.0129,-0.0124,-0.0301,-0.0299,-0.0298,-0.019,-0.0179,-0.017,0,0,0,0,0,0,0.0317,0.0296,0.0285,0.0285,0.0264,0.0224,0.0219,0.0198,0.0145,0.0137,0.0049,0.0023,-0.0031,-0.0095,-0.0092,-0.0166,-0.0208,-0.0211,-0.0117,-0.0108,-0.0099,-0.0075,-0.016,0,0,0,0,0,0.0326,0.0327,0.03,0.0301,0.0294,0.0259,0.0247,0.0225,0.0178,0.0156,0.0089,0.0016,-0.0044,-0.0089,-0.0153,-0.0207,-0.0247,-0.0216,-0.0208,-0.02,-0.0196,-0.0236,-0.023,-0.0293,-0.0293,-0.0293,0,0,0.0335,0.0325,0.0324,0.0306,0.0287,0.0282,0.0249,0.0237,0.0228,0.0136,0.0098,0.0041,-0.005,-0.0097,-0.0128,-0.0154,-0.02,-0.0198,-0.0191,-0.0192,-0.0234,-0.0228,-0.0222,-0.0292,-0.0292,-0.0293,0,0,0.0358,0.0346,0.0356,0.0342,0.0324,0.0302,0.0304,0.0269,0.0247,0.0206,0.0149,0.0104,-0.0002,-0.005,-0.0093,-0.0079,-0.0147,-0.0101,-0.0051,-0.0088,-0.0083,-0.0079,-0.0105,-0.0105,-0.0104,-0.0103,-0.0103,0,0.0368,0.0378,0.0354,0.0359,0.0355,0.0318,0.0326,0.0299,0.0244,0.023,0.0205,0.0096,0.0025,-0.0026,-0.0015,-0.0059,-0.009,-0.008,-0.0075,-0.0073,-0.0071,-0.0099,-0.0099,-0.0098,-0.0098,-0.0099,-0.0099,0,0.0396,0.0403,0.0409,0.0405,0.0395,0.0397,0.0364,0.035,0.0325,0.0296,0.0252,0.017,0.0108,0.0085,0.0032,0.0015,-0.0013,-0.0051,-0.0095,-0.0057,-0.0089,-0.0092,-0.0089,-0.0091,-0.0093,-0.0095,0,0,0.042,0.0428,0.0431,0.0442,0.0422,0.0421,0.041,0.0393,0.0395,0.0341,0.0336,0.0252,0.0222,0.0174,0.0113,0.0078,0.0074,0.0026,0.0021,0.0012,-0.0001,-0.0021,-0.0027,0.0037,0.0037,0.0037,-0.0022,0,0.0449,0.0481,0.0471,0.0496,0.051,0.048,0.0476,0.0454,0.0427,0.041,0.0342,0.0308,0.0249,0.0229,0.0188,0.0098,0.0069,0.0094,-0.0048,-0.0052,-0.0065,-0.003,-0.0005,-0.0056,-0.0026,-0.0026,-0.0027,0,0.0479,0.0499,0.0534,0.0553,0.0556,0.0561,0.0562,0.0553,0.0516,0.0498,0.0461,0.0403,0.0346,0.0296,0.0174,0.0192,0.0111,0.0044,0.0039,-0.0025,-0.0078,-0.0096,-0.0064,-0.0032,-0.0032,-0.0031,-0.0031,0,0.0516,0.0544,0.0579,0.0583,0.0592,0.0602,0.0604,0.0582,0.059,0.0558,0.0564,0.0479,0.0444,0.0333,0.0194,0.0184,0.0062,0.0024,-0.0067,-0.0069,-0.0099,-0.0104,-0.005,-0.005,-0.005,-0.0049,-0.0049,0,0.055,0.0577,0.0602,0.0619,0.0662,0.0649,0.0687,0.0674,0.0673,0.0693,0.0616,0.0612,0.0453,0.0358,0.0226,0.0075,0.0083,-0.0048,-0.0085,-0.0057,-0.0057,-0.0086,-0.009,-0.0052,-0.0051,-0.0051,-0.005,0,0.0577,0.0593,0.0639,0.0668,0.0681,0.071,0.0751,0.078,0.0768,0.0793,0.079,0.0714,0.0593,0.0426,0.0245,0.0124,-0.0026,-0.0082,-0.0032,-0.0062,-0.0138,-0.0135,-0.0183,-0.0184,-0.0185,-0.0186,-0.0187,0,0.0589,0.0618,0.0678,0.0712,0.0727,0.0774,0.0811,0.0826,0.0864,0.0856,0.0875,0.0776,0.0717,0.0451,0.0218,-0.0008,-0.0037,-0.0129,-0.0148,-0.012,-0.0151,-0.0146,-0.0142,-0.0137,-0.0138,-0.0138,-0.0138,0,0.0612,0.0638,0.0679,0.0754,0.0806,0.0872,0.0926,0.0974,0.0991,0.1015,0.102,0.0973,0.0724,0.0499,0.0191,0.0041,-0.0093,-0.0141,-0.0129,-0.0106,-0.0082,-0.011,-0.0107,-0.014,-0.014,-0.0139,-0.0139,-0.0139,0.0626,0.0664,0.0725,0.0797,0.0865,0.0951,0.1016,0.1079,0.1148,0.1186,0.1135,0.1079,0.0814,0.0429,0.0156,-0.0117,-0.0109,-0.0197,-0.0195,-0.0192,-0.0175,-0.0154,-0.0222,-0.0222,-0.0222,-0.0222,-0.0222,0,0.0635,0.0691,0.0761,0.0853,0.0934,0.0969,0.108,0.1149,0.124,0.1273,0.1279,0.1038,0.0777,0.0478,0.0066,-0.0183,-0.0193,-0.0251,-0.0211,-0.0208,-0.0205,-0.0187,-0.0238,-0.0238,-0.0239,-0.024,0,0,0.064,0.071,0.0755,0.0888,0.0961,0.1077,0.1149,0.1251,0.1311,0.1352,0.1325,0.1255,0.0876,0.058,0.0233,-0.0003,-0.004,-0.0041,-0.0002,0.009,0.0096,-0.0148,-0.0114,0,0,0,0,0]}],[{"header":{"parameterUnit":"m.s-1","parameterCategory":2,"la1":30.2991,"la2":30.254,"lo1":-89.0895,"lo2":-89.0444,"dy":0.0017,"dx":0.0017,"nx":28,"ny":28,"refTime":"2025-08-29T03:00:00:Z","depth":"4","parameterNumber":2,"parameterNumberName":"U-component_of_CURRENTS"},"data":[0,0,0,0,0,0,0,0,0,0,0,0,0,0,0,0,0,0,0,0,0,0,0,0,0,0,0,0,0,0,0,0,0,0,0,0,0,0,0,0,0,0,0,0,0,0,0,0,0,0,0,0,0,0,0,0,0,0,0.109,0.109,0,0.1061,0.1061,0.1061,0.107,0.107,0.107,0.1071,0.0972,0.0969,0.0966,0,0,0,0,0,0,0,0,0,0,0,0,0,0.1133,0.1133,0.109,0.109,0.1089,0.1061,0.1061,0.1061,0.107,0.107,0.1071,0.1071,0.0973,0.0969,0.0966,0,0,0,0,0,0,0,0,0,0,0,0,0,0.1112,0.1133,0.109,0.1089,0.1088,0.1061,0.1061,0.1061,0.1069,0.107,0.1071,0.1071,0.0974,0.097,0.0965,0.0925,0,0,0.0951,0.0949,0,0,0,0,0,0,0,0,0.1114,0.1111,0.1089,0.1089,0.1088,0.1068,0.104,0.1011,0.1069,0.1079,0.1071,0.1072,0.0996,0.0989,0.0987,0.092,0.0916,0.0951,0.0948,0.0946,0.0945,0,0,0,0,0,0,0,0.1115,0.1112,0.1081,0.1089,0.1088,0.1082,0.108,0.1035,0.1034,0.1078,0.1078,0.1071,0.0995,0.0991,0.0984,0.0914,0.0951,0.0947,0.0944,0.0943,0.0829,0.0829,0,0,0,0,0,0,0.1115,0.1114,0.1082,0.108,0.11,0.1081,0.1079,0.1075,0.1036,0.1031,0.1071,0.1072,0.0998,0.0989,0.098,0.1046,0.0946,0.0942,0.094,0.0829,0.0829,0.0829,0,0,0,0,0,0,0.1116,0.1112,0.1083,0.1094,0.109,0.1079,0.1075,0.1074,0.1113,0.1031,0.1025,0.1114,0.0999,0.0987,0.0972,0.1037,0.094,0.0936,0.083,0.0829,0.0829,0.1101,0,0,0,0,0,0,0.1117,0.1113,0.1123,0.1094,0.1089,0.1093,0.1074,0.1073,0.1103,0.1106,0.1065,0.1055,0.0998,0.098,0.0968,0.1029,0.0932,0.083,0.0829,0.0829,0.1093,0.111,0.1125,0,0,0,0,0,0.1119,0.1123,0.1124,0.112,0.1099,0.1094,0.1092,0.1087,0.1106,0.1126,0.1101,0.1058,0.0966,0.0977,0.0963,0.1025,0.083,0.083,0.0829,0.1085,0.1107,0.1125,0,0,0,0,0,0,0.1148,0.1123,0.1124,0.1121,0.1122,0.1095,0.1107,0.1118,0.1118,0.1123,0.1069,0.1056,0.1067,0.0984,0.0997,0.0975,0.0885,0.0881,0.1084,0.1103,0.1119,0.1082,0.0929,0,0,0,0,0,0.1158,0.1157,0.1139,0.1143,0.1146,0.1142,0.1147,0.1146,0.1133,0.1138,0.1117,0.107,0.1043,0.103,0.0977,0.0974,0.0925,0.0989,0.1006,0.1021,0.0972,0.0991,0.1008,0.0826,0.0826,0.0826,0,0,0.1172,0.1157,0.1158,0.1151,0.115,0.1157,0.1149,0.1163,0.1182,0.1121,0.1153,0.1135,0.1052,0.1059,0.1053,0.1009,0.1056,0.102,0.1036,0.0975,0.0993,0.1011,0.1028,0.0826,0.0826,0.0826,0,0,0.1186,0.1189,0.1191,0.1194,0.1194,0.119,0.1211,0.1214,0.1233,0.1246,0.1223,0.1244,0.1182,0.1167,0.1141,0.1199,0.1147,0.1182,0.1245,0.127,0.1286,0.13,0.133,0.1343,0.1189,0.119,0.119,0,0.1207,0.1202,0.1196,0.1199,0.1205,0.1218,0.1233,0.1249,0.1255,0.1272,0.1271,0.1257,0.1226,0.125,0.1273,0.1247,0.1239,0.1209,0.1301,0.1312,0.1322,0.1347,0.136,0.1203,0.1201,0.12,0.1199,0,0.1211,0.1223,0.1229,0.1236,0.1248,0.1264,0.1275,0.131,0.1342,0.1354,0.1402,0.1386,0.1372,0.1394,0.1351,0.141,0.1381,0.1342,0.1279,0.1359,0.1379,0.1387,0.1221,0.1217,0.1213,0.121,0,0,0.122,0.123,0.1237,0.1248,0.127,0.1276,0.1321,0.1355,0.1394,0.1432,0.1486,0.15,0.1521,0.1485,0.1488,0.1507,0.1626,0.1456,0.1451,0.1532,0.1692,0.1595,0.1593,0.1628,0.1629,0.1629,0.1708,0,0.1233,0.1246,0.1251,0.1285,0.1295,0.1321,0.1356,0.1392,0.1433,0.1489,0.1523,0.1563,0.1551,0.1584,0.1614,0.1601,0.1644,0.1606,0.1553,0.155,0.1495,0.1597,0.1633,0.1713,0.1714,0.1716,0.1716,0,0.1233,0.1242,0.1272,0.1302,0.1312,0.1341,0.1403,0.1437,0.1507,0.1542,0.1607,0.1628,0.1692,0.1664,0.1713,0.1695,0.1697,0.169,0.1694,0.1487,0.1464,0.1587,0.1729,0.1728,0.1727,0.1726,0.1725,0,0.1226,0.1257,0.1285,0.1295,0.1332,0.1365,0.14,0.1462,0.1505,0.1593,0.1642,0.1705,0.1757,0.1766,0.1769,0.1752,0.18,0.1782,0.1702,0.1697,0.1645,0.1627,0.1806,0.1806,0.1805,0.1805,0.1805,0,0.1217,0.1242,0.129,0.1301,0.1343,0.1373,0.1436,0.1478,0.156,0.1612,0.1685,0.1737,0.178,0.1817,0.1802,0.1778,0.1844,0.1706,0.1705,0.1762,0.1757,0.1655,0.1637,0.1808,0.1807,0.1807,0.1806,0,0.1192,0.1226,0.1259,0.1315,0.1338,0.1372,0.1454,0.1491,0.158,0.1658,0.1695,0.1786,0.1831,0.1863,0.1879,0.182,0.18,0.1774,0.1852,0.1855,0.1677,0.1671,0.1698,0.1695,0.1693,0.1691,0.1689,0,0.117,0.1187,0.1264,0.1288,0.1319,0.1377,0.141,0.1496,0.1537,0.1669,0.1696,0.1791,0.1836,0.18,0.1825,0.1815,0.1782,0.1765,0.169,0.1667,0.1665,0.1662,0.166,0.1685,0.1684,0.1684,0.1683,0,0.1128,0.1176,0.1202,0.1256,0.1301,0.1338,0.1399,0.1423,0.1518,0.1623,0.1661,0.1683,0.1735,0.1739,0.1747,0.1727,0.1765,0.1739,0.1743,0.1672,0.1652,0.1651,0.1651,0.1674,0.1676,0.1677,0.1677,0,0.1102,0.1115,0.1165,0.1199,0.1255,0.127,0.1312,0.1351,0.1402,0.1541,0.1549,0.1641,0.1723,0.1696,0.1698,0.1678,0.1644,0.1567,0.1579,0.1589,0.1511,0.1466,0.1432,0,0,0,0,0,0.1061,0.1066,0.1097,0.1124,0.1177,0.1208,0.1282,0.1326,0.1426,0.142,0.148,0.1519,0.1534,0.1578,0.1534,0.1643,0.1646,0.1583,0.1563,0.1627,0.1637,0.1551,0,0,0,0,0,0,0.103,0.1063,0.1068,0.1052,0.1059,0.1101,0.1145,0.1215,0.1214,0.1326,0.1345,0.1429,0.1468,0.155,0.1508,0.1519,0.1473,0.1642,0.1637,0.1622,0.1631,0.1639,0.1553,0,0,0,0,0]},{"header":{"parameterUnit":"m.s-1","parameterCategory":2,"la1":30.2991,"la2":30.254,"lo1":-89.0895,"lo2":-89.0444,"dy":0.0017,"dx":0.0017,"nx":28,"ny":28,"refTime":"2025-08-29T03:00:00:Z","depth":"4","parameterNumber":3,"parameterNumberName":"V-component_of_CURRENTS"},"data":[0,0,0,0,0,0,0,0,0,0,0,0,0,0,0,0,0,0,0,0,0,0,0,0,0,0,0,0,0,0,0,0,0,0,0,0,0,0,0,0,0,0,0,0,0,0,0,0,0,0,0,0,0,0,0,0,0,0,0.0231,0.0231,0,0.0216,0.0216,0.0215,0.0217,0.0217,0.0217,0.0218,0.02,0.0199,0.0198,0,0,0,0,0,0,0,0,0,0,0,0,0,0.0233,0.0233,0.0231,0.0231,0.0231,0.0216,0.0216,0.0215,0.0217,0.0217,0.0217,0.0218,0.02,0.0199,0.0198,0,0,0,0,0,0,0,0,0,0,0,0,0,0.0225,0.0233,0.0231,0.0231,0.0231,0.0216,0.0216,0.0215,0.0216,0.0217,0.0218,0.0218,0.02,0.0199,0.0198,0.0179,0,0,0.0194,0.0194,0,0,0,0,0,0,0,0,0.0225,0.0225,0.0231,0.0231,0.0231,0.022,0.021,0.0204,0.0216,0.022,0.0218,0.0218,0.0207,0.0205,0.0199,0.0179,0.0178,0.0194,0.0193,0.0193,0.0192,0,0,0,0,0,0,0,0.0226,0.0225,0.0223,0.0231,0.0231,0.0222,0.0222,0.0208,0.0209,0.022,0.022,0.0221,0.0207,0.02,0.0199,0.0178,0.0194,0.0193,0.0192,0.0192,0.0157,0.0157,0,0,0,0,0,0,0.0232,0.0226,0.0224,0.0223,0.0231,0.0222,0.0221,0.0222,0.021,0.0209,0.022,0.0221,0.0202,0.02,0.0198,0.0179,0.0193,0.0192,0.0191,0.0157,0.0157,0.0157,0,0,0,0,0,0,0.0232,0.0232,0.0225,0.0225,0.0224,0.0222,0.0222,0.0221,0.0223,0.021,0.0209,0.0224,0.0202,0.02,0.0184,0.0178,0.0191,0.019,0.0157,0.0157,0.0157,0.0138,0,0,0,0,0,0,0.0232,0.0232,0.0235,0.0226,0.0224,0.0222,0.0221,0.022,0.0222,0.0223,0.0213,0.0211,0.0203,0.0186,0.0183,0.0177,0.0189,0.0158,0.0157,0.0157,0.0139,0.0137,0.0136,0,0,0,0,0,0.0232,0.0237,0.0235,0.0235,0.0228,0.0222,0.022,0.0219,0.0222,0.0223,0.021,0.0212,0.0182,0.0184,0.0181,0.0174,0.0158,0.0157,0.0157,0.014,0.0137,0.0136,0,0,0,0,0,0,0.0242,0.0237,0.0235,0.0239,0.0233,0.0223,0.0226,0.0223,0.0213,0.0215,0.0203,0.02,0.0182,0.0183,0.0186,0.0165,0.0173,0.0172,0.0161,0.0159,0.0157,0.0179,0.0188,0,0,0,0,0,0.0244,0.0247,0.0239,0.0243,0.0241,0.0233,0.0232,0.0229,0.022,0.0217,0.0207,0.0196,0.0175,0.0173,0.0157,0.0145,0.0132,0.0142,0.014,0.0139,0.0155,0.0107,0.0102,0.0155,0.0155,0.0155,0,0,0.0251,0.0248,0.0251,0.0245,0.0241,0.0241,0.0234,0.0234,0.0232,0.0215,0.0209,0.0186,0.0169,0.015,0.0144,0.0153,0.0115,0.0138,0.0137,0.0154,0.0106,0.0101,0.0096,0.0155,0.0155,0.0155,0,0,0.0265,0.0262,0.0269,0.0263,0.0259,0.0252,0.0254,0.0243,0.0237,0.0224,0.0204,0.0179,0.0164,0.0142,0.013,0.0114,0.0102,0.0113,0.0128,0.008,0.0075,0.0071,0.0039,0.0032,0.0119,0.0119,0.0119,0,0.0272,0.028,0.0269,0.0272,0.0274,0.0259,0.0266,0.0253,0.0237,0.023,0.0226,0.018,0.016,0.0128,0.0121,0.0109,0.0088,0.0132,0.0077,0.0072,0.0068,0.0037,0.0029,0.0118,0.0119,0.0119,0.0119,0,0.0288,0.0295,0.0299,0.0299,0.0296,0.0299,0.0282,0.0273,0.0264,0.0251,0.0219,0.0179,0.016,0.0139,0.0126,0.0087,0.0083,0.0071,0.008,0.0061,0.003,0.0022,0.0117,0.0117,0.0118,0.0118,0,0,0.0303,0.031,0.0313,0.0322,0.0311,0.0313,0.0303,0.0291,0.0291,0.0258,0.0248,0.0194,0.0177,0.0163,0.013,0.009,0.0029,0.0076,0.0074,0.0042,-0.0066,-0.0051,-0.0058,0.0002,0.0001,0.0,-0.008,0,0.0321,0.0342,0.0336,0.0354,0.0364,0.0345,0.034,0.0324,0.0306,0.029,0.0237,0.0216,0.0184,0.0171,0.0122,0.0055,0.0011,0.0053,-0.004,-0.0042,-0.0029,-0.0066,-0.0004,-0.0086,-0.0087,-0.0089,-0.009,0,0.0338,0.0352,0.0378,0.0389,0.0391,0.0397,0.0392,0.0385,0.035,0.0335,0.0299,0.0263,0.0202,0.0177,0.0055,0.0084,0.0016,-0.004,-0.0045,-0.0023,-0.004,-0.0061,-0.0103,-0.0102,-0.0101,-0.01,-0.01,0,0.0361,0.0381,0.0408,0.041,0.0417,0.0423,0.0424,0.0403,0.0407,0.0367,0.0368,0.0286,0.0254,0.0152,0.0046,0.0046,-0.0088,-0.0106,-0.0158,-0.0157,-0.0138,-0.0132,-0.0193,-0.0193,-0.0193,-0.0193,-0.0193,0,0.0379,0.0399,0.0425,0.0438,0.047,0.0459,0.0484,0.0467,0.0457,0.0467,0.04,0.0385,0.0246,0.0159,0.0052,-0.0069,-0.0086,-0.0155,-0.018,-0.0144,-0.0138,-0.0144,-0.0137,-0.0196,-0.0195,-0.0195,-0.0194,0,0.0393,0.041,0.0445,0.047,0.0483,0.0506,0.0537,0.0552,0.0535,0.0543,0.0536,0.0454,0.0341,0.0203,0.0034,-0.0048,-0.0175,-0.0215,-0.0155,-0.0175,-0.0215,-0.0209,-0.0284,-0.0284,-0.0284,-0.0284,-0.0284,0,0.0397,0.042,0.0476,0.0507,0.0522,0.056,0.0588,0.0591,0.0612,0.0588,0.0594,0.0497,0.0427,0.0209,0.0053,-0.0152,-0.018,-0.0246,-0.0242,-0.021,-0.0227,-0.0219,-0.0213,-0.0285,-0.0285,-0.0285,-0.0285,0,0.0404,0.0434,0.0466,0.0535,0.0581,0.0632,0.0672,0.0695,0.0696,0.0687,0.0646,0.0532,0.0405,0.0225,0.0068,-0.0081,-0.0206,-0.0248,-0.0249,-0.0246,-0.0212,-0.0227,-0.022,-0.0285,-0.0285,-0.0285,-0.0285,0,0.0412,0.0441,0.0496,0.0554,0.0619,0.0679,0.0701,0.0725,0.0743,0.0718,0.0702,0.0561,0.0475,0.0262,0.0115,-0.0028,-0.0067,-0.0116,-0.0124,-0.0126,-0.0057,0.0011,-0.0016,0,0,0,0,0,0.0411,0.0449,0.0506,0.0576,0.0645,0.0687,0.0745,0.0762,0.0772,0.0756,0.0732,0.0615,0.04,0.0303,0.0164,0.0099,-0.0101,-0.0069,-0.0163,-0.0289,-0.0288,-0.0233,0,0,0,0,0,0,0.041,0.0466,0.0502,0.0587,0.0639,0.0716,0.076,0.077,0.0761,0.0748,0.0639,0.0581,0.0373,0.0482,0.0162,0.0117,0.0038,-0.0171,-0.0174,-0.0289,-0.0288,-0.0288,-0.0231,0,0,0,0,0]}]]